E22ZMG-3 Weather Reports


time (UTC)temp
F
wind
direction
speed
knots
gust
knots
rain 1hr
in
rain 24hr
in
rain mn
in
humidity
%
barometer
mb
20260505000551 88 0 0.0 0.0 0.00 0.00 0.00 58 979.0
20260504235527 87 0 0.0 0.0 0.00 0.00 0.00 61 979.0
20260504234502 88 0 0.0 0.0 0.00 0.00 0.00 59 978.0
20260504233438 88 0 0.0 0.0 0.00 0.00 0.00 60 978.0
20260504232414 87 0 0.0 0.0 0.00 0.00 0.00 61 978.0
20260504231350 86 0 0.0 0.0 0.00 0.00 0.00 62 978.0
20260504230325 85 0 0.0 0.0 0.00 0.00 0.00 63 978.0
20260504225301 87 0 0.0 0.0 0.00 0.00 0.00 60 978.0
20260504224237 87 0 0.0 0.0 0.00 0.00 0.00 61 977.0
20260504223213 87 0 0.0 0.0 0.00 0.00 0.00 59 977.0
20260504222146 88 0 0.0 0.0 0.00 0.00 0.00 58 977.0
20260504221127 86 0 0.0 0.0 0.00 0.00 0.00 62 977.0
20260504221122 86 0 0.0 0.0 0.00 0.00 0.00 62 977.0
20260504220058 85 0 0.0 0.0 0.00 0.00 0.00 63 977.0
20260504215034 87 0 0.0 0.0 0.00 0.00 0.00 60 977.0
20260504214010 87 0 0.0 0.0 0.00 0.00 0.00 59 977.0
20260504212946 87 0 0.0 0.0 0.00 0.00 0.00 59 977.0
20260504211921 88 0 0.0 0.0 0.00 0.00 0.00 58 977.0
20260504210857 88 0 0.0 0.0 0.00 0.00 0.00 57 977.0
20260504205833 88 0 0.0 0.0 0.00 0.00 0.00 58 977.0
20260504204808 88 0 0.0 0.0 0.00 0.00 0.00 58 977.0
20260504203743 89 0 0.0 0.0 0.00 0.00 0.00 57 977.0
20260504202719 88 0 0.0 0.0 0.00 0.00 0.00 59 978.0
20260504201655 87 0 0.0 0.0 0.00 0.00 0.00 59 978.0
20260504200630 88 0 0.0 0.0 0.00 0.00 0.00 57 978.0
20260504195606 88 0 0.0 0.0 0.00 0.00 0.00 58 978.0
20260504194542 89 0 0.0 0.0 0.00 0.00 0.00 58 978.0
20260504193638 88 0 0.0 0.0 0.00 0.00 0.00 58 978.0
20260504193517 88 0 0.0 0.0 0.00 0.00 0.00 58 978.0
20260504192453 89 0 0.0 0.0 0.00 0.00 0.00 56 978.0
20260504191429 88 0 0.0 0.0 0.00 0.00 0.00 57 978.0
20260504190405 89 0 0.0 0.0 0.00 0.00 0.00 57 978.0
20260504185341 89 0 0.0 0.0 0.00 0.00 0.00 57 978.0
20260504184317 89 0 0.0 0.0 0.00 0.00 0.00 56 978.0
20260504183252 88 0 0.0 0.0 0.00 0.00 0.00 57 978.0
20260504182230 89 0 0.0 0.0 0.00 0.00 0.00 56 978.0
20260504182228 89 0 0.0 0.0 0.00 0.00 0.00 56 978.0
20260504181203 89 0 0.0 0.0 0.00 0.00 0.00 56 978.0
20260504180139 89 0 0.0 0.0 0.00 0.00 0.00 56 978.0
20260504175115 88 0 0.0 0.0 0.00 0.00 0.00 57 978.0
20260504174051 88 0 0.0 0.0 0.00 0.00 0.00 57 979.0
20260504173026 87 0 0.0 0.0 0.00 0.00 0.00 59 979.0
20260504172002 87 0 0.0 0.0 0.00 0.00 0.00 60 978.0
20260504170938 88 0 0.0 0.0 0.00 0.00 0.00 60 978.0
20260504150446 94 0 0.0 0.0 0.00 0.00 0.00 38 976.0
20260504141244 95 0 0.0 0.0 0.00 0.00 0.00 35 975.0
20260504140219 96 0 0.0 0.0 0.00 0.00 0.00 35 975.0
20260504130725 97 0 0.0 0.0 0.00 0.00 0.00 39 974.0
20260504110228 97 0 0.0 0.0 0.00 0.00 0.00 36 972.0
20260504081552 109 0 0.0 0.0 0.00 0.00 0.00 24 973.0
20260504080528 109 0 0.0 0.0 0.00 0.00 0.00 24 973.0
20260504070300 109 0 0.0 0.0 0.00 0.00 0.00 22 974.0
20260504050331 106 0 0.0 0.0 0.00 0.00 0.00 27 976.0
20260504050322 106 0 0.0 0.0 0.00 0.00 0.00 27 976.0
20260504050319 106 0 0.0 0.0 0.00 0.00 0.00 27 976.0
20260504045253 106 0 0.0 0.0 0.00 0.00 0.00 28 977.0
20260504044229 106 0 0.0 0.0 0.00 0.00 0.00 29 977.0
20260504043204 101 0 0.0 0.0 0.00 0.00 0.00 32 977.0
20260504042140 103 0 0.0 0.0 0.00 0.00 0.00 31 977.0
20260504041115 101 0 0.0 0.0 0.00 0.00 0.00 32 977.0
20260504040051 102 0 0.0 0.0 0.00 0.00 0.00 31 977.0
20260504035030 100 0 0.0 0.0 0.00 0.00 0.00 34 977.0
20260504035025 100 0 0.0 0.0 0.00 0.00 0.00 34 977.0
20260504034000 101 0 0.0 0.0 0.00 0.00 0.00 33 977.0
20260504032935 100 0 0.0 0.0 0.00 0.00 0.00 34 977.0
20260504031911 100 0 0.0 0.0 0.00 0.00 0.00 36 978.0
20260504030847 100 0 0.0 0.0 0.00 0.00 0.00 36 978.0
20260504025822 99 0 0.0 0.0 0.00 0.00 0.00 36 978.0
20260504024757 97 0 0.0 0.0 0.00 0.00 0.00 37 978.0
20260504023733 99 0 0.0 0.0 0.00 0.00 0.00 35 978.0
20260504022709 97 0 0.0 0.0 0.00 0.00 0.00 38 978.0
20260504021648 97 0 0.0 0.0 0.00 0.00 0.00
20260504021644 97 0 0.0 0.0 0.00 0.00 0.00 39 978.0
20260504020619 97 0 0.0 0.0 0.00 0.00 0.00 39 978.0
20260504015554 97 0 0.0 0.0 0.00 0.00 0.00 39 978.0
20260504014533 96 0 0.0 0.0 0.00 0.00 0.00 40 978.0
20260504014530 96 0 0.0 0.0 0.00 0.00 0.00 40 978.0
20260504013505 96 0 0.0 0.0 0.00 0.00 0.00 41 978.0
20260504012441 94 0 0.0 0.0 0.00 0.00 0.00 43 978.0
20260504011412 94 0 0.0 0.0 0.00 0.00 0.00 44 978.0
20260504010955 93 0 0.0 0.0 0.00 0.00 0.00 45 978.0
20260504005930 92 0 0.0 0.0 0.00 0.00 0.00 44 978.0
20260504004904 91 0 0.0 0.0 0.00 0.00 0.00 47 977.0
20260504003840 91 0 0.0 0.0 0.00 0.00 0.00 49 977.0
20260504002815 90 0 0.0 0.0 0.00 0.00 0.00 50 977.0
20260504001750 89 0 0.0 0.0 0.00 0.00 0.00 53 977.0
20260504000725 88 0 0.0 0.0 0.00 0.00 0.00 59 977.0